Meath Environmental Platform

Observations

Time Sensor AQI SAQ Temp °C Hum % Pres Pa CO μg/m³ H₂S μg/m³ NO μg/m³ NO₂ μg/m³ O₃ μg/m³ SO₂ μg/m³ CO₂e PPM VOC PPM PM1 μg/m³ PM2.5 μg/m³ PM4 μg/m³ PM10 μg/m³ TPS µm
Wednesday 12 August 2026
23:07 Trim Patrick St 3 23.8 56 69,764 0 7.3 0.92 17.39 53.23 6.88 3.71 9.06 9.96
23:07 Trim Market St 3 24.4 53 56,210 0 0 0.92 16.22 73.12 0 2.14 4.37 7.53
23:06 Trim Patrick St 3 23.8 56 69,742 0 7.01 0.95 20.24 51.95 6.44 3.71 9.07 9.97
23:06 Trim Market St 3 24.4 53 56,203 0 0 0.92 14.5 66.92 0 1.43 2.84 3.88
23:05 Trim Patrick St 3 23.8 56 69,740 0 8.15 0.94 15.07 56.93 6.79 6.29 10.57 11.63
23:05 Trim Market St 3 24.4 53 56,200 0 0 0.92 15.19 74.79 0 2.14 4.38 5.34
23:04 Trim Patrick St 3 23.8 55 69,738 0 8.15 0.96 24.72 50.28 6.84 4.57 9.86 10.85
23:04 Trim Market St 3 24.4 53 56,185 0 0 0.92 14.31 67.93 0 1.43 4.89 7.53
23:03 Trim Patrick St 3 23.9 55 69,705 0 7.74 0.94 17.71 51.03 6.83 5.43 10.62 11.68
23:03 Trim Market St 3 24.4 53 56,175 0 0 0.92 20.11 66.9 0 2.14 4.89 7.53
23:02 Trim Patrick St 3 23.9 56 69,663 0 9.15 0.93 18.57 52.4 6.79 4.57 9.83 10.81
23:02 Trim Market St 3 24.5 53 56,136 0 0 0.9 13.39 77.09 0 3.56 4.9 6.07
23:01 Trim Patrick St 3 23.9 54 69,667 0 8.73 0.94 29.03 49.66 6.85 4.57 9.14 10.06
23:00 Trim Patrick St 3 23.9 55 69,671 0 5.97 0.92 15.15 52.37 6.74 4.57 9.09 10
22:59 Trim Patrick St 3 23.9 55 69,679 0 9.1 0.92 19.55 52.47 6.64 3.71 9.11 10.02
22:58 Trim Patrick St 3 23.9 55 69,663 0 9.42 0.93 19.25 52.96 6.53 4.57 9.85 10.84
22:58 Trim Market St 3 24.6 52 56,118 0 0 0.91 16.74 68.86 0 2.14 4.39 5.33
22:57 Trim Patrick St 3 23.9 55 69,667 0 10.71 0.91 23.46 53.4 6.62 4.57 9.09 10
22:57 Trim Market St 3 24.6 52 56,099 0 0 0.91 14.79 73.59 0 2.85 4.91 6.06
22:56 Trim Patrick St 3 24 55 69,673 0 10.82 0.92 26.13 51.96 7.01 4.57 9.86 10.85